This is the latest recevied weather packets stored in our database for station/object WB6ANP. If no packets are shown the sender has not sent any weather packets the latest 10 day(s).
| Time | Temp. | Humidity | Pressure | Rain* | Wind** | Luminosity | Snow |
|---|---|---|---|---|---|---|---|
| 1778004204 | 28.33° C | 60% | 1005.4 hPa | 0 mm | - | 630 W/m² | - |
| 1778003901 | 27.78° C | 59% | 1005.4 hPa | 0 mm | - | 577 W/m² | - |
| 1778003597 | 28.33° C | 59% | 1005.4 hPa | 0 mm | - | 533 W/m² | - |
| 1778003294 | 28.33° C | 61% | 1005.5 hPa | 0 mm | - | 573 W/m² | - |
| 1778002991 | 28.33° C | 60% | 1005.7 hPa | 0 mm | - | 557 W/m² | - |
| 1778002687 | 28.33° C | 61% | 1005.7 hPa | 0 mm | - | 632 W/m² | - |
| 1778002383 | 27.78° C | 63% | 1005.3 hPa | 0 mm | - | 680 W/m² | - |
| 1778002080 | 27.78° C | 61% | 1005.3 hPa | 0 mm | - | 611 W/m² | - |
| 1778001778 | 27.78° C | 62% | 1005.3 hPa | 0 mm | - | 768 W/m² | - |
| 1778001473 | 27.78° C | 63% | 1005.3 hPa | 0 mm | - | 735 W/m² | - |
| 1778001169 | 27.78° C | 62% | 1005.4 hPa | 0 mm | - | 511 W/m² | - |
| 1778000866 | 27.78° C | 62% | 1005.6 hPa | 0 mm | - | 495 W/m² | - |
| 1778000564 | 27.78° C | 63% | 1005.5 hPa | 0 mm | - | 503 W/m² | - |
| 1777999954 | 27.78° C | 63% | 1005.3 hPa | 0 mm | - | 748 W/m² | - |
| 1777999650 | 27.22° C | 65% | 1005.4 hPa | 0 mm | - | 539 W/m² | - |
| 1777999348 | 27.22° C | 63% | 1005.5 hPa | 0 mm | - | 610 W/m² | - |
| 1777999046 | 27.22° C | 62% | 1005.4 hPa | 0 mm | - | 608 W/m² | - |
| 1777998744 | 27.22° C | 63% | 1005.5 hPa | 0 mm | - | 489 W/m² | - |
| 1777998441 | 27.22° C | 61% | 1005 hPa | 0 mm | - | 646 W/m² | - |
| 1777998138 | 27.78° C | 62% | 1005 hPa | 0 mm | - | 681 W/m² | - |
| 1777997835 | 27.78° C | 63% | 1005 hPa | 0 mm | - | 830 W/m² | - |
| 1777997533 | 26.67° C | 65% | 1004.8 hPa | 0 mm | - | 722 W/m² | - |
| 1777997230 | 27.22° C | 64% | 1004.8 hPa | 0 mm | - | 749 W/m² | - |
| 1777996927 | 26.67° C | 64% | 1004.9 hPa | 0 mm | - | 708 W/m² | - |
| 1777996623 | 26.67° C | 67% | 1004.8 hPa | 0 mm | - | 698 W/m² | - |
* Rain latest hour (hover to see other rain measurements)
** Current wind speed in m/s (hover to see current wind gust speed)